Погода в Стшельце-Краеньске

Польша     52°52′39″N   15°31′55″E
темп.,
°C
ветер,
м/с
пор.,
м/с
влажн.,
%
обл.,
%
осадки,
мм/ч
давл.,
гПа
погр.,
м
19 января, ср
ср1901:00+1з4109613 0.0 1031232
04:00+1зюз51197100 0.0 1029257
07:00+1зюз41096100 0.0 1027214
10:00+2зюз3993100 0.0 1025275
13:00+4юз41084100 0.0 1021384
16:00+2ююз51189100 0.0 1016343
19:00+3юз71583100 0.0 1012549
22:00+2зюз91782100 0.0 1009826
20 января, чт
чт2001:00+3зсз101785100 0.3 10071419
04:000з11206597 0.1 10081667
07:00−1зсз11187969 0.6 10081449
10:00−1зсз10176319 0.0 10091589
13:00+1сз111661100 0.4 10101918
16:000сз8155789 0.2 10121409
19:00−1сз8145476 0.3 10141253
22:00−1сз7135394 0.0 10161073
21 января, пт
пт2101:00−1зсз91574100 0.8 10171288
04:00−1зсз9156690 0.2 10181118
07:00−2зсз7127684 0.3 1018770
10:00−1сз611575 0.1 10191502
13:00+1сз712528 0.1 10191863
16:00−1сз510586 0.0 1019418
19:00−2зсз4106556 0.0 1020295
22:00−2з51073100 0.0 1021276
22 января, сб
сб2201:00−1зсз6137555 0.0 1020382
04:00−2зсз51277100 0.0 1020311
07:00−2сз511915 0.0 1020363
10:00−1с59644 0.0 10231023
13:00+1с696251 0.0 10251250
16:00−1ссз59755 0.0 1027287
19:00−3ссз37855 0.0 1030165
22:00−3сз35865 0.0 1031120
23 января, вс
вс2301:00−3сз34875 0.0 103169
04:00−4зсз34875 0.0 103272
07:00−4сз228666 0.0 103234
10:00−2с237959 0.0 1034133
13:000с226852 0.0 1034341
16:00−1сз11755 0.0 103510
19:00−2юв00795 0.0 103610
22:00−2ююв22815 0.0 103738